Welcome to the New NWS' Forecast!
Most changes are behind the scenes, but click here for differences you might notice.

Regional Weather Roundup (RWR)

Issued by Boston / Norton, MA (BOX)

                            
257 
ASUS41 KBOX 201210
RWRBOX

REGIONAL WEATHER ROUNDUP
NATIONAL WEATHER SERVICE BOSTON/NORTON MA
800 AM EDT MON AUG 20 2018

NOTE:  "FAIR" INDICATES FEW OR NO CLOUDS BELOW 12,000 FEET WITH NO 
SIGNIFICANT WEATHER AND/OR OBSTRUCTIONS TO VISIBILITY.

MAZALL-201300-
EASTERN MASSACHUSETTS
  
CITY           SKY/WX    TMP DP  RH WIND       PRES   REMARKS
BOSTON         CLOUDY    68  62  81 N10       30.17R                  
6HR MIN TEMP:  67; 6HR MAX TEMP:  68;                                

BEVERLY        CLOUDY    67  63  87 N8        30.16S                  
LAWRENCE       CLOUDY    68  60  75 N10       30.19S                  
BEDFORD        CLOUDY    65  61  87 N6        30.17R                  
BLUE HILL        N/A     64  62  93 N10G17    30.16R                  
NORWOOD        CLOUDY    68  64  87 N8        30.15R                  
MARSHFIELD     CLOUDY    68  64  88 VRB7G16   30.14R                  
PLYMOUTH       LGT RAIN  67  64  90 N9        30.13R                  
TAUNTON        CLOUDY    67  64  90 VRB5      30.13S FOG              
NEW BEDFORD    LGT RAIN  66  66 100 N7        30.12R FOG              
$$

MAZALL-201300-
CAPE COD AND THE ISLANDS
  
CITY           SKY/WX    TMP DP  RH WIND       PRES   REMARKS
FALMOUTH       LGT RAIN  66  66 100 N12       30.12R VSB 3/4          
HYANNIS        LGT RAIN  68  66  93 N9        30.09R FOG              
CHATHAM        CLOUDY    67  65  93 NE7       30.11R                  
PROVINCETOWN   CLOUDY    65  63  93 NE10      30.13R                  
NANTUCKET      LGT RAIN  66  66 100 NE14      30.08R FOG              
MARTHAS VNYRD  CLOUDY    68  68 100 N9        30.09S                  
$$
 
MAZALL-201300-
CENTRAL AND WESTERN MASSACHUSETTS
  
CITY           SKY/WX    TMP DP  RH WIND       PRES   REMARKS
WORCESTER      FAIR      61  60  97 NE7       30.18S                  
6HR MIN TEMP:  60; 6HR MAX TEMP:  61;                                

FITCHBURG      CLOUDY    64  60  87 N7        30.19S                  
ORANGE         CLOUDY    65  60  84 N6        30.20S                  
SPRINGFIELD    PTSUNNY   66  59  77 N5        30.18R                  
WESTFIELD      FAIR      66  60  81 N10       30.17S                  
NORTH ADAMS    FAIR      62  57  83 E6        30.19S                  
PITTSFIELD     CLOUDY    63  57  81 NE5       30.19R                  
$$
 
RIZALL-201300-
RHODE ISLAND
  
CITY           SKY/WX    TMP DP  RH WIND       PRES   REMARKS
PROVIDENCE     CLOUDY    67  63  87 NE14G20   30.14R                  
6HR MIN TEMP:  66; 6HR MAX TEMP:  67; 6HR PCP:  0.01;                

NEWPORT        CLOUDY    66  65  96 N9        30.12S FOG              
BLOCK ISLAND   CLOUDY    67  65  93 N12G22    30.12R                  
SMITHFIELD     CLOUDY    64  62  93 N10       30.16R                  
WESTERLY       CLOUDY    68  66  93 N8        30.13S                  
$$
 
CTZALL-201300-
CONNECTICUT
  
CITY           SKY/WX    TMP DP  RH WIND       PRES   REMARKS
BRADLEY INTL   PTSUNNY   66  60  81 N7        30.17R                  
6HR MIN TEMP:  64; 6HR MAX TEMP:  66;                                

HARTFORD       CLOUDY    67  61  81 N9        30.15S                  
BRIDGEPORT     CLOUDY    67  62  84 NE9       30.14R                  
DANBURY        CLOUDY    65  61  87 NE8       30.16S                  
GROTON         CLOUDY    69  63  81 N10       30.12R                  
NEW HAVEN      CLOUDY    69  62  78 N10       30.14R                  
CHESTER        CLOUDY    66  63  88 NE8       30.15R                  
MERIDEN        CLOUDY    67  60  78 N6        30.15R                  
WILLIMANTIC    CLOUDY    68  63  84 NE7       30.15S                  
OXFORD         CLOUDY    64  61  90 NE12      30.16R                  
$$

MEZ002-015-021-024-NHZ003-005-008-011-012-014-VTZ005-008-201300-
NORTHERN NEW ENGLAND
  
CITY           SKY/WX    TMP DP  RH WIND       PRES   REMARKS
PORTLAND ME    FAIR      66  60  81 NE6       30.21R                  
6HR MIN TEMP:  60; 6HR MAX TEMP:  66;                                

BANGOR ME      PTSUNNY   61  58  90 N6        30.23S                  
CONCORD NH     CLOUDY    62  60  93 N3        30.20R                  
MANCHESTER NH  PTSUNNY   67  60  78 N7        30.18R                  
NASHUA NH      CLOUDY    65  63  93 NW5       30.20R                  
PORTSMOUTH NH  PTSUNNY   66  58  75 N9        30.17S                  
JAFFREY NH     LGT RAIN  62  60  93 NE5       30.22S                  
KEENE NH       CLOUDY   N/A N/A N/A CALM      30.20S                  
BURLINGTON VT  FAIR      68  58  70 SE5       30.18S                  
MT. WASHINGTON FOG       45  45 100 NE22        N/A  VSB 1/2          
$$

NYZ052-076-201300-
EASTERN NEW YORK
  
CITY           SKY/WX    TMP DP  RH WIND       PRES   REMARKS
ALBANY         FAIR      64  59  83 NW5       30.19R                  
6HR MIN TEMP:  60; 6HR MAX TEMP:  67;                                

NEW YORK CITY  CLOUDY    70  61  73 NE14      30.13R                  
6HR MIN TEMP:  68; 6HR MAX TEMP:  70;                                

$$
 
ANZALL-201300-
MARINE OBSERVATIONS
  
STATION/POSITION TIME  TEMP    WIND        PRES    VSBY  WAVE
                       AIR SEA DIR/SP/G                  HT/PER
                 (UTC) (F)     (DEG/KT/KT) (MB)    (MI)  (FT/S)
BOSTON BUOY      1150   67 67   20/ 17/ 21 1020.0R         4/ 6
BUZZARDS BAY     1100   66      10/ 17/ 19 1019.4R
NANTUCKET SOUND  1150   69 75   40/ 17/ 21 1018.6R         3/ 4
MASS BAY-STELLWA 1104   67 67   30/ 17/ 19 1018.9R  1 3/4  4/ 6
ISLE OF SHOALS   1100   65      20/ 16/ 19 1021.0R
S OF BLOCK IS    1143      73                N/A           4/ 5
$$

......................KEY.........................
  SKY/WX - SKY CONDITION/PRESENT WEATHER
  TMP    - TEMPERATURE IN FAHRENHEIT
  DWPT   - DEWPOINT IN FAHRENHEIT
  RH     - RELATIVE HUMIDITY IN PERCENT
  WIND   - DIRECTION AND SPEED IN MPH
  PRES   - MEAN SEA LEVEL PRESSURE IN INCHES OF HG
  WCI    - WIND CHILL INDEX
  VSB    - VISIBILITY IN MILES
  HX     - HEAT INDEX
  TC     - TEMPERATURE IN CELSIUS
  VRB    - VARIABLE WIND DIRECTION
  N/A    - NOT AVAILABLE